Location: Winthrop
(48.4780°N, 120.1850°W)
Time: 06:44:58
(UTC-08:00)

A-11 Canister half - Visible Passes

Search period start: 11 December 2023 00:00
Search period end: 21 December 2023 00:00
Orbit: 1514 x 1686 km, 47.2° (Epoch: 10 December)

Date Brightness Start Highest point End Pass type
(mag) Time Alt. Az. Time Alt. Az. Time Alt. Az.
11 Dec 10.8 01:52:41 19° E 01:52:41 19° E 01:55:00 10° E visible
11 Dec 9.2 03:50:54 58° S 03:50:54 58° S 03:59:34 10° SE visible
11 Dec 10.1 05:49:06 20° W 05:53:22 27° SW 06:01:15 10° S visible
12 Dec 11.1 01:31:14 13° E 01:31:14 13° E 01:31:58 10° E visible
12 Dec 9.5 03:29:28 49° SSE 03:29:28 49° SSE 03:36:38 10° SE visible
12 Dec 9.9 05:27:41 25° WSW 05:30:28 28° SW 05:38:34 10° S visible
13 Dec 9.9 03:08:04 38° SE 03:08:04 38° SE 03:13:41 10° SE visible
13 Dec 9.8 05:06:17 29° WSW 05:07:35 30° SW 05:15:52 10° S visible
14 Dec 10.4 02:46:43 28° SE 02:46:43 28° SE 02:50:44 10° ESE visible
14 Dec 9.8 04:44:56 32° SW 04:44:56 32° SW 04:53:09 10° SSE visible
14 Dec 10.8 19:57:41 10° S 19:58:31 12° S 19:58:31 12° S visible
15 Dec 10.7 02:25:24 20° SE 02:25:24 20° SE 02:27:47 10° ESE visible
15 Dec 9.9 04:23:38 31° SSW 04:23:38 31° SSW 04:30:23 10° SSE visible
15 Dec 10.5 19:35:05 10° S 19:37:18 16° SSE 19:37:18 16° SSE visible
16 Dec 11.1 02:04:08 13° ESE 02:04:08 13° ESE 02:04:48 10° ESE visible
16 Dec 10.1 04:02:22 28° S 04:02:22 28° S 04:07:37 10° SSE visible
16 Dec 10.3 19:12:32 10° S 19:16:04 19° SSE 19:16:04 19° SSE visible
16 Dec 10.9 21:13:24 10° SW 21:14:17 14° SW 21:14:17 14° SW visible
17 Dec 10.4 03:41:07 23° S 03:41:07 23° S 03:44:50 10° SSE visible
17 Dec 10.2 18:50:01 10° S 18:54:47 20° SE 18:54:47 20° SE visible
17 Dec 10.5 20:50:33 10° SW 20:53:01 20° SW 20:53:01 20° SW visible
18 Dec 10.7 03:19:54 17° SSE 03:19:54 17° SSE 03:22:02 10° SSE visible
18 Dec 10.2 18:27:31 10° SSE 18:33:27 19° SE 18:33:30 19° SE visible
18 Dec 10.1 20:27:42 10° SW 20:31:43 28° SSW 20:31:43 28° SSW visible
19 Dec 11.0 02:58:41 12° SSE 02:58:41 12° SSE 02:59:13 10° SSE visible
19 Dec 10.2 18:05:05 10° SSE 18:10:38 18° SE 18:12:09 17° ESE visible
19 Dec 9.8 20:04:53 10° SW 20:10:23 37° SSW 20:10:23 37° SSW visible
20 Dec 10.3 17:42:42 10° SSE 17:47:49 16° SE 17:50:47 14° ESE visible
20 Dec 9.4 19:42:03 10° SW 19:49:00 44° S 19:49:00 44° S visible
20 Dec 10.9 21:45:44 10° WSW 21:47:13 16° WSW 21:47:13 16° WSW visible
